Madison, MN

3:06 PM CDT on September 25, 2017 (GMT -0500)
Madison-Lac Qui Parle County

Weather History for KDXX - September, 2012

Change the Weather History Date:

Friday, September 7, 2012

  Actual Average (KAQP) Record (KAQP)
Temperature  
Mean Temperature 60 °F -  
Max Temperature 71 °F 75 °F 93 °F (2013)
Min Temperature 50 °F 51 °F 41 °F (2008)
Degree Days  
Heating Degree Days 4    
Growing Degree Days 10 (Base 50)    
Moisture  
Dew Point 49 °F    
Average Humidity 64    
Maximum Humidity 94    
Minimum Humidity 33    
Precipitation  
Precipitation 0.00 in - - ()
Sea Level Pressure  
Sea Level Pressure 30.05 in    
Wind  
Wind Speed 10 mph (NNW)    
Max Wind Speed 20 mph    
Max Gust Speed 26 mph    
Visibility 10 miles    
Events      
Averages and records for this station are not official NWS values.
T = Trace of Precipitation, MM = Missing Value Source: NWS Daily Summary

Daily Weather History Graph

Daily Weather History Graph

Search for Another Location

Airport or City:

Trip Planner

Search our weather history database for the weather conditions in past years. The results will help you decide how hot, cold, wet, or windy it might be!

Date:

Astronomy

Sep. 07, 2012 Rise Set
Actual Time 6:54 AM CDT 7:49 PM CDT
Civil Twilight 6:24 AM CDT 8:19 PM CDT
Nautical Twilight 5:48 AM CDT 8:55 PM CDT
Astronomical Twilight 5:11 AM CDT 9:32 PM CDT
Moon 11:26 PM CDT (9/7) 2:06 PM CDT (9/7)
Length of Visible Light 13h 54m
Length of Day
12h 55m
Waning Gibbous, 58% of the Moon is Illuminated
Sep 7
Waning Gibbous
Sep 8
Last Quarter
Sep 15
New
Sep 22
First Quarter
Sep 29
Full

Hourly Weather History & Observations

Time (CDT) Temp. Dew Point Humidity Pressure Visibility Wind Dir Wind Speed Gust Speed Precip Events Conditions
12:14 AM 64.4 °F 55.4 °F 73% 29.94 in 10.0 mi North 10.4 mph - N/A   Scattered Clouds
12:33 AM 62.6 °F 55.4 °F 77% 29.95 in 10.0 mi North 8.1 mph - N/A   Clear
12:54 AM 62.6 °F 55.4 °F 77% 29.96 in 10.0 mi North 6.9 mph - N/A   Clear
1:14 AM 62.6 °F 57.2 °F 82% 29.96 in 10.0 mi NNE 8.1 mph - N/A   Scattered Clouds
1:33 AM 62.6 °F 57.2 °F 82% 29.96 in 10.0 mi North 8.1 mph - N/A   Mostly Cloudy
1:54 AM 62.6 °F 55.4 °F 77% 29.96 in 10.0 mi North 6.9 mph - N/A   Mostly Cloudy
2:14 AM 62.6 °F 55.4 °F 77% 29.96 in 10.0 mi North 9.2 mph - N/A   Mostly Cloudy
2:33 AM 62.6 °F 55.4 °F 77% 29.95 in 10.0 mi North 8.1 mph - N/A   Scattered Clouds
2:54 AM 62.6 °F 55.4 °F 77% 29.96 in 10.0 mi North 11.5 mph - N/A   Mostly Cloudy
3:14 AM 62.6 °F 55.4 °F 77% 29.96 in 10.0 mi NNW 8.1 mph - N/A   Mostly Cloudy
3:33 AM 60.8 °F 55.4 °F 82% 29.96 in 10.0 mi NNW 9.2 mph - N/A   Scattered Clouds
3:54 AM 60.8 °F 55.4 °F 82% 29.97 in 10.0 mi NNW 10.4 mph - N/A   Clear
4:14 AM 60.8 °F 55.4 °F 82% 29.98 in 10.0 mi NNW 10.4 mph - N/A   Scattered Clouds
4:33 AM 60.8 °F 53.6 °F 77% 29.99 in 10.0 mi NNW 9.2 mph - N/A   Scattered Clouds
4:54 AM 60.8 °F 55.4 °F 82% 29.99 in 10.0 mi NNW 11.5 mph - N/A   Clear
5:14 AM 60.8 °F 55.4 °F 82% 30.00 in 10.0 mi NNW 13.8 mph 17.3 mph N/A   Clear
5:33 AM 59.0 °F 55.4 °F 88% 30.01 in 10.0 mi NNW 9.2 mph - N/A   Clear
5:54 AM 59.0 °F 55.4 °F 88% 30.02 in 10.0 mi NW 6.9 mph - N/A   Clear
6:14 AM 57.2 °F 55.4 °F 94% 30.03 in 10.0 mi NW 6.9 mph - N/A   Clear
6:33 AM 57.2 °F 53.6 °F 88% 30.03 in 10.0 mi NW 6.9 mph - N/A   Clear
6:54 AM 57.2 °F 53.6 °F 88% 30.04 in 10.0 mi NW 6.9 mph - N/A   Clear
7:13 AM 57.2 °F 53.6 °F 88% 30.05 in 10.0 mi NW 8.1 mph - N/A   Clear
7:34 AM 55.4 °F 53.6 °F 94% 30.06 in 10.0 mi NW 6.9 mph - N/A   Clear
7:54 AM 57.2 °F 53.6 °F 88% 30.06 in 10.0 mi NW 8.1 mph - N/A   Clear
8:13 AM 57.2 °F 53.6 °F 88% 30.07 in 10.0 mi NW 8.1 mph - N/A   Clear
8:34 AM 59.0 °F 53.6 °F 82% 30.07 in 10.0 mi NW 9.2 mph - N/A   Clear
8:54 AM 59.0 °F 53.6 °F 82% 30.07 in 10.0 mi NW 9.2 mph - N/A   Mostly Cloudy
9:13 AM 60.8 °F 53.6 °F 77% 30.08 in 10.0 mi NNW 10.4 mph - N/A   Mostly Cloudy
9:34 AM 62.6 °F 53.6 °F 72% 30.08 in 10.0 mi NNW 12.7 mph - N/A   Mostly Cloudy
9:53 AM 62.6 °F 53.6 °F 72% 30.08 in 10.0 mi NNW 10.4 mph 17.3 mph N/A   Mostly Cloudy
10:14 AM 64.4 °F 51.8 °F 64% 30.08 in 10.0 mi NNW 13.8 mph - N/A   Mostly Cloudy
10:34 AM 64.4 °F 51.8 °F 64% 30.08 in 10.0 mi NNW 15.0 mph - N/A   Scattered Clouds
10:53 AM 66.2 °F 51.8 °F 60% 30.08 in 10.0 mi North 12.7 mph 19.6 mph N/A   Clear
11:14 AM 66.2 °F 51.8 °F 60% 30.08 in 10.0 mi North 16.1 mph 20.7 mph N/A   Clear
11:34 AM 66.2 °F 48.2 °F 52% 30.08 in 10.0 mi North 16.1 mph 20.7 mph N/A   Scattered Clouds
11:53 AM 69.8 °F 48.2 °F 46% 30.08 in 10.0 mi North 17.3 mph 21.9 mph N/A   Scattered Clouds
12:14 PM 69.8 °F 48.2 °F 46% 30.08 in 10.0 mi NNW 18.4 mph 26.5 mph N/A   Scattered Clouds
12:34 PM 69.8 °F 46.4 °F 43% 30.08 in 10.0 mi North 18.4 mph 23.0 mph N/A   Scattered Clouds
12:53 PM 69.8 °F 46.4 °F 43% 30.08 in 10.0 mi North 17.3 mph 25.3 mph N/A   Scattered Clouds
1:14 PM 71.6 °F 46.4 °F 41% 30.08 in 10.0 mi NNW 18.4 mph 23.0 mph N/A   Scattered Clouds
1:34 PM 69.8 °F 44.6 °F 40% 30.08 in 10.0 mi North 16.1 mph 23.0 mph N/A   Mostly Cloudy
1:53 PM 69.8 °F 44.6 °F 40% 30.08 in 10.0 mi NNW 16.1 mph 24.2 mph N/A   Mostly Cloudy
2:14 PM 69.8 °F 44.6 °F 40% 30.08 in 10.0 mi NNW 17.3 mph 25.3 mph N/A   Mostly Cloudy
2:58 PM 69.8 °F 41.0 °F 35% 30.08 in 10.0 mi North 16.1 mph 25.3 mph N/A   Mostly Cloudy
3:14 PM 71.6 °F 41.0 °F 33% 30.08 in 10.0 mi NW 19.6 mph 25.3 mph N/A   Mostly Cloudy
3:34 PM 69.8 °F 42.8 °F 38% 30.08 in 10.0 mi North 19.6 mph 23.0 mph N/A   Scattered Clouds
3:53 PM 69.8 °F 41.0 °F 35% 30.08 in 10.0 mi North 17.3 mph 24.2 mph N/A   Scattered Clouds
4:14 PM 69.8 °F 41.0 °F 35% 30.08 in 10.0 mi NNW 17.3 mph 25.3 mph N/A   Mostly Cloudy
4:34 PM 69.8 °F 42.8 °F 38% 30.08 in 10.0 mi NNW 13.8 mph 23.0 mph N/A   Mostly Cloudy
4:53 PM 71.6 °F 42.8 °F 35% 30.08 in 10.0 mi NNW 13.8 mph 20.7 mph N/A   Mostly Cloudy
5:14 PM 69.8 °F 42.8 °F 38% 30.08 in 10.0 mi NNW 17.3 mph 21.9 mph N/A   Mostly Cloudy
5:34 PM 69.8 °F 42.8 °F 38% 30.08 in 10.0 mi NNW 17.3 mph 25.3 mph N/A   Mostly Cloudy
5:53 PM 69.8 °F 42.8 °F 38% 30.08 in 10.0 mi NNW 15.0 mph - N/A   Mostly Cloudy
6:14 PM 69.8 °F 42.8 °F 38% 30.08 in 10.0 mi NNW 12.7 mph 19.6 mph N/A   Mostly Cloudy
6:34 PM 69.8 °F 42.8 °F 38% 30.08 in 10.0 mi North 10.4 mph - N/A   Scattered Clouds
6:53 PM 68.0 °F 44.6 °F 43% 30.08 in 10.0 mi North 8.1 mph - N/A   Mostly Cloudy
7:14 PM 68.0 °F 44.6 °F 43% 30.08 in 10.0 mi NNW 11.5 mph - N/A   Mostly Cloudy
7:34 PM 64.4 °F 44.6 °F 49% 30.08 in 10.0 mi NNW 10.4 mph - N/A   Scattered Clouds
7:53 PM 64.4 °F 44.6 °F 49% 30.08 in 10.0 mi NW 8.1 mph - N/A   Clear
8:14 PM 62.6 °F 44.6 °F 52% 30.09 in 10.0 mi WNW 5.8 mph - N/A   Clear
8:34 PM 57.2 °F 44.6 °F 63% 30.09 in 10.0 mi WNW 6.9 mph - N/A   Clear
8:53 PM 55.4 °F 46.4 °F 72% 30.10 in 10.0 mi WNW 6.9 mph - N/A   Clear
9:14 PM 57.2 °F 46.4 °F 67% 30.10 in 10.0 mi WNW 6.9 mph - N/A   Clear
9:33 PM 55.4 °F 46.4 °F 72% 30.10 in 10.0 mi WNW 5.8 mph - N/A   Clear
9:53 PM 53.6 °F 44.6 °F 72% 30.10 in 10.0 mi West 6.9 mph - N/A   Clear
10:14 PM 53.6 °F 44.6 °F 72% 30.10 in 10.0 mi WNW 5.8 mph - N/A   Clear
10:54 PM 50.0 °F 44.6 °F 82% 30.10 in 10.0 mi West 6.9 mph - N/A   Clear
11:14 PM 50.0 °F 44.6 °F 82% 30.10 in 10.0 mi WNW 6.9 mph - N/A   Clear
11:33 PM 50.0 °F 44.6 °F 82% 30.11 in 10.0 mi WNW 5.8 mph - N/A   Clear
11:54 PM 50.0 °F 44.6 °F 82% 30.11 in 10.0 mi WNW 8.1 mph - N/A   Clear